Voltar ao catálogo

CZ-4 DEB

AtivoSSO
NORAD 27762·DEBRIS·🇨🇳 China

Lançado Oct 14, 1999 de Taiyuan Satellite Launch Center

Loading…

Próximas Passagens (próximas 24 horas)

TLE

AtualizadoSource: Space-Track

Época: Sep 14, 2026, 13:15 UTC

1 27762U 99057MV  26257.55276914  .00001064  00000-0  44672-3 0  9992
2 27762  98.6924  13.7819 0166308 188.0055 233.2405 14.20774822275802

Acompanhe CZ-4 DEB em tempo real com AllMySat

Download on the App Store